GFSSW_700_temp_066.txt.gz
Temp
8 8 8 8 8 8 7 7 6 6 6 6 6 6 6 7 7 7 7 7 7 7 7 8 8 8 8 8 8 8 8 8 9 10 10 9 9 9 9 9 9 8 9 9 9
8 8 7 7 7 7 7 6 6 6 6 6 6 6 6 7 7 7 7 7 7 7 7 8 7 7 8 7 8 8 8 8 9 9 8 9 9 9 9 9 10 9 9 9 9
7 8 7 7 7 7 7 6 5 5 6 6 6 6 6 6 7 6 7 7 7 7 7 8 8 8 8 7 7 7 8 8 8 8 9 9 9 9 9 10 10 9 7 9 9
7 7 7 7 7 7 6 6 5 5 6 6 6 6 6 6 7 7 7 7 7 7 8 8 8 8 7 7 7 7 9 8 8 9 9 9 9 10 10 11 9 9 8 9 10
7 7 7 7 7 6 6 5 5 5 5 6 6 6 6 6 6 7 7 7 7 7 8 8 8 7 7 7 7 8 9 9 9 9 10 10 10 9 11 10 10 10 9 9 10
7 7 7 7 6 6 5 5 5 5 6 6 6 6 6 6 7 7 7 7 7 7 8 8 8 8 8 8 8 8 8 9 9 10 9 9 10 9 10 9 10 10 9 9 9
7 7 7 7 6 5 5 5 5 5 5 5 6 6 6 6 6 7 7 7 7 8 8 8 8 8 8 8 8 8 8 9 10 9 9 9 10 11 9 9 9 9 10 9 10
6 6 6 6 6 5 5 5 5 5 5 5 6 6 6 7 7 7 7 7 7 8 8 8 8 8 8 8 8 9 8 9 9 9 9 9 11 10 9 8 8 8 8 8 9
6 6 6 6 5 5 5 5 5 5 5 5 5 6 6 7 7 7 7 7 8 8 8 8 8 8 8 8 8 9 8 9 9 9 8 8 11 11 9 7 8 8 8 8 8
6 6 6 6 5 5 5 5 6 6 6 6 6 6 7 7 8 7 7 7 7 7 8 8 7 8 8 7 7 8 8 8 8 8 8 8 9 11 9 9 8 8 8 8 8
6 6 6 6 5 5 5 5 6 6 6 7 6 6 6 7 7 7 7 7 7 7 7 6 6 7 7 8 8 8 7 7 8 7 7 8 9 10 10 8 9 9 9 9 9
6 6 5 6 6 6 6 6 6 6 7 7 6 7 7 7 6 7 7 7 7 7 6 6 7 7 7 7 7 7 7 7 7 7 7 8 10 10 9 8 9 9 9 9 9
6 5 6 5 6 6 6 6 6 5 6 7 7 7 7 7 6 6 7 7 7 7 7 6 7 7 8 8 7 6 6 7 7 7 8 7 10 10 9 9 8 9 8 9 9
6 6 5 5 5 6 6 6 6 5 6 7 7 7 7 6 7 7 7 7 7 7 6 7 7 7 7 7 6 6 7 7 7 6 6 7 5 10 10 9 8 7 8 8 8
6 5 5 5 6 5 6 6 5 5 6 7 7 7 7 6 7 7 7 7 7 6 6 7 7 7 7 7 7 7 7 7 7 6 5 6 6 10 10 9 8 7 8 8 8
5 5 5 5 5 5 5 5 5 5 6 7 7 7 7 7 7 7 7 7 7 7 7 8 7 7 7 7 7 7 7 8 6 5 4 8 7 9 10 8 7 7 7 7 8
5 5 5 5 5 5 5 5 5 5 7 7 7 7 7 6 7 7 7 7 7 7 8 7 7 7 7 7 7 6 6 7 5 4 6 7 7 9 9 8 7 7 6 7 7
5 5 5 5 4 4 5 4 4 7 7 7 7 7 6 6 7 7 7 7 7 6 7 7 7 7 7 7 6 6 6 6 5 5 5 7 7 9 9 8 7 6 6 6 6
5 5 5 5 4 4 4 4 7 7 7 7 7 7 6 7 6 6 7 7 7 7 6 7 8 7 7 6 6 5 5 6 5 6 5 7 8 8 8 8 7 6 6 5 6
4 5 5 5 4 4 3 4 5 6 6 6 6 7 7 7 7 6 7 7 7 6 6 6 6 6 6 6 6 5 5 5 5 3 5 8 7 8 7 7 7 6 5 4 4
4 4 5 4 4 3 4 5 5 6 6 6 6 6 6 7 6 6 7 6 6 6 6 5 5 6 5 6 6 5 4 4 4 5 3 2 6 8 8 6 6 6 5 4 3
3 4 4 4 4 4 5 5 5 5 5 5 6 6 6 6 5 5 6 6 5 5 5 5 5 5 5 5 6 5 5 4 4 5 5 5 4 6 6 5 5 4 4 3 3
3 3 4 4 4 4 5 5 4 5 5 5 5 6 5 5 5 5 5 5 5 4 4 4 4 4 5 5 5 5 4 4 4 4 3 3 4 6 6 4 4 4 4 4 4
2 2 3 3 4 4 4 4 4 4 5 5 5 5 5 5 5 4 4 4 4 4 4 3 3 3 3 4 4 3 3 3 3 3 3 3 3 3 3 3 2 2 2 2 2
2 2 3 4 4 4 3 3 3 4 4 5 5 5 4 4 4 3 3 3 3 3 3 2 2 2 2 3 2 2 3 2 2 2 2 5 2 3 2 2 2 2 2 1 0
1 2 2 2 3 3 3 3 3 3 3 4 4 4 4 3 3 3 3 2 2 2 2 2 2 1 1 2 1 2 2 2 2 2 2 2 2 2 2 2 2 2 1 0 -0
1 1 1 2 2 2 3 4 4 3 3 3 3 3 3 3 3 3 3 3 2 2 1 1 0 0 0 1 1 2 5 4 4 3 3 2 2 2 2 2 1 1 0 -0 -1

GFSSW_700_temp_072.txt.gz
Temp
8 8 7 7 7 8 8 8 7 6 6 6 6 6 6 6 6 6 7 7 7 7 7 7 7 8 8 8 8 8 7 8 8 8 8 8 8 8 9 9 9 9 9 9 9
8 8 8 7 7 7 8 7 7 6 5 6 6 6 6 6 6 7 7 7 7 7 7 7 7 8 8 8 8 8 7 8 8 8 8 8 8 8 9 9 10 9 9 8 9
8 8 8 7 7 7 7 7 6 6 5 5 6 6 6 6 6 6 7 6 6 6 7 7 7 8 8 8 8 8 9 8 8 8 8 8 9 9 9 10 9 9 9 9 9
8 7 7 7 7 7 7 6 6 6 5 5 6 6 6 6 7 6 6 6 6 6 7 7 7 8 8 8 7 7 8 8 9 8 8 9 9 9 9 9 9 9 9 10 9
7 7 7 7 7 6 7 6 5 5 5 5 5 6 6 6 6 6 6 6 6 6 7 7 7 7 8 8 7 7 8 8 8 8 9 8 9 8 9 9 9 9 9 9 9
7 7 7 7 7 6 6 6 5 5 5 5 5 6 6 6 6 6 6 6 6 6 7 7 7 7 8 8 7 8 8 8 9 9 9 8 8 9 9 9 8 8 8 8 9
7 7 7 8 7 6 6 6 5 5 5 5 5 6 6 6 6 6 6 6 6 7 7 7 7 7 7 8 7 8 8 8 8 8 8 8 10 9 8 9 9 9 10 9 9
7 7 7 7 6 6 5 5 5 5 5 5 5 6 6 6 6 6 6 7 7 7 7 7 7 7 7 7 7 7 8 8 8 8 8 8 11 10 8 9 10 10 9 9 9
6 7 6 6 6 6 5 4 5 5 5 5 5 5 6 6 7 6 7 7 7 7 7 7 7 7 7 7 7 7 7 7 8 8 8 8 10 9 8 8 9 9 9 9 9
6 6 6 6 6 5 5 5 4 5 5 5 5 5 6 7 7 7 7 7 7 7 7 7 7 7 7 7 7 7 6 7 7 8 7 8 9 9 8 8 9 8 8 9 9
6 6 6 6 5 5 5 4 5 5 5 5 6 6 7 7 7 7 7 7 7 7 7 7 7 7 7 7 6 6 6 7 8 7 8 8 9 8 9 9 8 8 8 8 9
6 6 6 5 5 5 5 5 5 5 6 6 6 6 7 7 7 7 7 6 7 7 6 6 7 7 7 7 6 6 7 7 8 8 7 8 8 9 9 8 7 8 8 8 8
6 6 5 5 5 5 5 5 5 5 6 6 6 6 6 6 6 6 6 6 7 7 6 6 7 7 7 6 6 7 7 7 7 8 8 8 8 8 8 7 7 8 8 7 7
5 5 5 5 5 6 5 5 5 5 5 7 7 7 6 6 6 7 7 6 6 6 6 6 7 7 7 6 6 7 7 7 7 6 6 6 7 7 7 7 7 7 8 7 7
5 5 5 5 5 5 5 5 5 5 3 7 6 6 7 6 7 7 7 7 7 6 6 7 7 7 6 7 6 6 6 7 7 6 6 6 5 6 7 7 7 7 7 6 6
5 5 5 5 5 5 4 4 5 4 4 6 6 7 7 7 6 7 7 6 6 6 6 7 6 6 7 6 6 6 6 6 6 6 4 6 6 7 7 7 7 7 6 6 6
5 5 5 5 5 4 4 4 4 4 6 7 7 7 7 7 6 6 6 6 6 6 7 6 7 7 6 6 6 6 6 6 4 3 3 6 6 8 7 7 6 5 5 5 5
4 4 4 4 4 4 3 3 3 6 6 7 7 6 6 6 6 6 6 7 7 6 6 7 7 7 6 6 6 6 5 5 4 2 3 6 6 7 7 6 5 5 5 4 4
4 4 4 4 4 3 3 3 5 6 6 6 6 6 6 6 6 6 6 6 6 7 6 6 6 6 6 6 5 5 5 5 4 3 3 5 6 6 5 5 5 4 4 4 4
4 4 4 3 3 3 3 3 5 5 5 6 6 6 6 6 6 6 6 6 6 6 6 6 6 6 6 5 5 5 5 4 4 2 2 3 5 6 5 4 4 4 4 3 2
3 3 3 3 3 2 3 4 4 5 5 5 6 6 6 6 6 6 6 6 6 6 6 6 5 5 5 5 5 5 5 5 4 4 0 -1 4 5 5 5 4 4 3 3 2
3 3 3 3 3 3 3 4 4 4 5 5 5 5 6 6 6 6 6 6 6 6 6 5 5 5 5 5 5 4 4 4 4 3 3 2 3 4 4 5 4 4 3 3 2
2 2 2 2 2 3 4 4 4 4 4 4 5 5 5 5 5 5 5 5 5 5 5 5 4 4 4 4 4 4 4 4 3 3 3 1 3 4 5 4 3 2 2 3 3
1 1 2 2 3 3 3 3 4 4 4 4 4 4 4 5 5 5 5 5 5 5 5 4 4 4 5 4 4 3 4 3 2 2 2 2 3 4 4 3 2 2 2 2 2
1 1 2 2 3 3 3 3 3 3 3 4 4 4 4 4 4 4 4 4 4 4 4 4 3 3 3 3 3 2 3 3 2 2 1 2 2 3 2 2 2 2 2 1 1
0 1 1 2 2 2 2 3 3 3 3 3 4 4 4 4 4 4 4 4 4 3 3 3 3 2 2 2 2 2 3 3 2 2 2 2 2 2 2 2 2 2 1 1 2
-0 1 1 1 1 2 2 3 3 2 2 2 3 2 3 3 3 3 3 3 3 3 3 2 2 2 1 1 1 2 4 2 3 3 2 3 3 2 2 2 1 1 1 0 -0

GFSSW_700_temp_075.txt.gz
Temp
8 8 8 8 7 7 7 7 7 6 6 6 6 6 6 6 6 6 6 6 6 6 7 7 7 7 7 8 8 7 7 7 8 8 8 8 7 8 8 8 8 8 8 8 9
7 8 8 7 7 7 7 7 7 6 6 6 6 6 6 6 6 6 6 6 6 6 7 7 7 7 7 7 8 7 8 8 8 7 7 8 8 8 8 8 9 8 8 9 9
7 7 7 7 7 7 7 7 6 6 5 5 6 6 6 6 6 6 6 6 6 6 7 7 7 7 8 8 8 8 8 7 8 7 7 8 8 8 8 9 8 9 9 9 9
7 7 7 7 7 7 7 6 6 6 5 5 5 6 6 6 6 6 6 6 6 6 6 6 7 7 7 7 7 8 8 7 8 8 8 8 8 9 9 8 8 8 9 9 9
7 7 7 7 7 7 7 6 6 6 5 5 5 6 6 6 6 6 6 6 6 6 6 6 7 7 7 7 7 8 8 8 8 8 8 8 8 8 9 8 8 8 8 9 9
7 7 7 7 7 7 6 6 5 5 5 5 5 5 6 6 6 6 6 6 6 6 6 6 7 7 7 7 7 8 8 8 8 7 8 8 8 9 8 8 8 9 9 10 10
7 7 7 7 7 7 6 6 5 5 5 5 5 5 5 6 6 6 6 6 6 6 6 6 7 7 7 7 7 7 8 8 8 8 8 9 10 9 8 9 9 9 9 9 10
7 6 7 7 7 6 6 5 5 4 5 5 5 5 6 6 6 6 6 6 6 6 6 7 7 7 7 7 7 7 7 8 8 8 8 8 10 9 8 8 9 9 9 9 9
6 6 6 6 6 6 6 5 4 4 5 5 5 5 5 6 6 6 6 6 6 7 7 7 7 7 7 7 7 7 7 7 8 7 7 7 9 9 8 8 8 9 9 9 9
6 6 6 6 6 6 5 4 4 4 4 5 5 5 6 6 6 6 6 6 7 7 6 6 7 7 7 6 7 6 6 7 7 7 7 8 9 8 9 8 8 8 8 8 8
6 6 6 5 5 5 4 4 4 4 5 5 5 6 6 6 6 6 6 6 7 6 6 6 7 7 6 6 6 6 6 6 7 7 7 8 8 9 9 8 8 7 7 8 8
6 5 6 5 5 5 5 4 4 5 5 5 6 5 6 6 6 6 6 6 7 6 6 6 7 7 6 6 6 6 6 7 7 7 7 8 8 8 8 8 8 7 7 7 7
5 5 5 5 5 5 4 4 4 5 5 6 6 6 6 6 6 6 6 6 6 6 6 6 7 6 6 6 6 6 6 6 6 7 7 7 7 7 8 7 7 7 7 7 6
5 5 5 5 5 5 5 5 4 5 5 7 7 6 6 6 6 6 6 5 6 6 6 7 7 7 6 6 6 6 6 6 6 6 6 6 6 7 7 7 7 7 7 6 6
5 5 5 5 5 5 5 5 5 5 3 7 6 6 7 6 6 6 6 6 6 6 6 6 6 6 6 6 6 6 6 6 6 6 5 6 5 7 7 7 7 7 6 6 5
5 5 4 5 4 4 4 4 4 4 4 6 6 6 6 6 6 6 6 5 6 6 6 7 6 6 6 6 6 6 6 6 6 6 3 5 5 7 7 8 7 6 5 5 5
4 4 4 4 4 4 4 4 4 4 6 6 6 6 6 6 6 6 6 6 6 6 7 7 7 7 6 6 6 6 6 6 4 3 3 5 5 7 7 7 6 5 5 4 4
4 4 4 4 4 3 3 3 3 5 6 6 6 6 6 6 6 6 6 6 6 6 6 6 6 6 6 6 6 6 5 5 4 2 2 6 5 6 6 6 5 4 4 3 4
4 4 4 3 3 3 3 2 4 5 5 6 6 6 6 6 5 5 6 6 6 6 6 6 6 6 6 6 6 5 5 5 4 3 1 4 5 5 5 5 4 4 3 4 3
4 4 3 3 3 3 2 3 4 5 5 5 6 6 6 6 5 5 6 6 6 6 6 6 6 6 6 5 5 5 5 4 4 2 1 3 4 6 5 4 4 3 4 4 3
3 3 3 3 2 2 2 3 4 5 5 5 5 5 6 6 6 6 6 6 6 6 6 5 5 5 5 5 5 5 4 4 4 4 0 -1 4 6 5 4 4 4 3 3 3
3 3 3 3 2 2 3 4 4 4 4 4 5 5 5 5 6 6 6 6 6 6 6 5 5 5 5 5 5 5 4 4 4 3 3 1 3 5 4 4 4 4 3 3 3
2 2 3 3 2 2 3 3 3 4 4 4 4 4 5 5 5 5 5 5 5 5 5 5 5 4 4 4 4 4 4 4 4 3 3 1 4 4 4 4 3 3 2 3 2
1 1 2 2 2 3 3 3 3 4 3 4 4 4 4 4 4 4 5 5 5 5 5 4 4 4 5 5 4 4 3 4 2 2 2 3 3 3 3 3 2 2 2 2 1
1 1 2 2 2 3 3 2 3 3 3 3 4 4 4 3 4 4 4 4 4 4 4 4 4 4 4 4 3 3 3 3 3 3 2 2 3 2 3 2 2 2 2 1 1
0 0 1 1 2 2 2 2 3 3 3 3 3 4 3 3 3 4 4 4 4 4 4 3 3 3 3 3 2 2 3 3 3 2 2 2 2 3 3 3 2 2 1 0 0
-0 0 1 1 1 2 2 3 3 2 2 3 3 2 2 3 3 3 3 3 3 3 3 3 3 2 2 2 1 1 4 3 3 2 2 2 3 2 2 1 0 0 -0 0 0

GFSSW_700_temp_081.txt.gz
Temp
4 5 5 6 6 7 6 6 7 7 6 6 5 5 6 6 6 6 6 6 6 6 6 7 7 7 7 7 7 7 7 7 7 7 7 7 7 8 8 8 8 8 8 9 8
4 5 4 6 5 6 6 6 6 6 6 5 5 5 5 6 6 6 6 6 6 6 6 6 7 7 7 7 7 7 7 7 7 7 7 7 7 8 8 8 8 8 8 9 9
4 3 5 5 5 5 6 6 6 6 5 5 5 5 5 6 6 6 6 6 6 6 6 6 7 7 7 7 7 7 7 7 7 7 7 7 8 8 8 8 8 9 8 9 9
3 3 3 4 5 4 6 6 6 6 5 5 5 5 5 6 6 6 6 6 5 6 6 6 6 7 7 7 7 7 7 7 7 7 7 7 8 8 8 8 8 8 9 9 9
4 4 4 5 5 5 5 5 6 6 5 5 5 5 5 5 6 6 6 6 5 6 6 6 6 7 7 7 7 8 8 8 7 7 7 7 7 8 8 8 8 8 8 9 9
4 4 5 4 5 5 5 5 5 5 5 4 4 5 5 5 6 6 6 6 6 6 6 6 6 6 7 7 7 7 8 7 8 8 7 7 8 7 7 7 8 7 8 9 9
4 4 4 4 5 6 5 5 5 5 5 4 4 4 5 5 5 5 6 5 6 6 6 6 6 6 7 7 7 7 8 7 7 7 7 7 8 7 7 7 7 8 8 8 9
5 5 3 4 5 5 5 5 5 5 4 4 4 4 5 5 5 5 5 5 5 6 6 6 6 6 6 7 7 7 7 7 6 7 7 7 8 7 7 7 7 7 7 8 8
6 5 4 5 5 5 5 5 4 4 4 4 4 4 4 5 5 5 5 5 5 5 6 6 6 6 6 6 6 7 6 7 7 6 7 7 8 7 7 7 7 7 7 7 7
6 5 5 5 5 5 5 5 4 4 4 4 4 4 5 5 5 5 5 5 5 5 5 6 6 6 6 6 6 6 6 6 6 6 7 7 7 7 8 7 6 6 7 7 7
6 5 5 5 5 5 5 4 4 4 4 5 4 5 5 5 5 5 5 5 5 5 5 6 6 6 6 6 6 6 6 6 6 7 7 7 7 8 8 7 6 6 6 7 7
5 5 5 5 5 5 4 4 4 4 4 4 4 5 4 4 5 5 5 5 5 6 5 6 6 6 7 6 6 5 6 6 6 6 6 7 7 7 6 6 6 6 6 6 6
5 5 5 5 5 5 4 4 3 3 3 4 4 5 5 4 5 5 5 5 5 5 5 5 6 6 6 6 5 5 6 6 6 6 6 6 6 6 6 6 6 6 5 6 6
4 5 5 5 5 5 4 4 3 3 3 5 5 5 5 5 5 5 5 5 5 5 5 5 6 6 6 6 5 6 6 6 6 5 6 6 6 6 6 6 5 5 5 5 5
5 4 4 4 4 4 4 3 3 3 2 5 5 5 5 5 5 6 5 5 5 5 5 5 5 5 6 6 5 6 6 6 5 5 5 5 5 6 6 6 5 5 5 5 5
4 4 4 4 4 4 4 3 3 3 2 5 5 5 5 5 5 5 5 5 5 4 5 5 5 5 5 5 5 5 5 5 5 4 3 4 4 6 6 6 5 5 4 4 4
4 4 4 4 4 3 3 3 2 3 5 5 5 5 5 5 5 5 5 5 5 4 4 5 5 6 5 5 5 5 5 5 4 3 4 5 4 6 6 6 5 4 4 4 4
3 3 3 3 3 3 3 3 3 5 5 5 5 5 5 5 4 5 4 5 4 4 5 5 5 5 5 5 5 5 5 5 5 3 3 4 4 6 6 6 5 4 3 3 3
3 3 3 3 3 3 2 2 4 5 5 5 5 5 5 5 5 5 4 5 5 5 5 5 5 5 5 5 5 5 5 5 5 2 1 4 5 6 6 6 5 4 3 3 3
3 3 3 3 2 2 1 2 4 4 5 5 5 5 5 5 5 5 5 6 5 5 5 5 5 5 5 5 5 5 5 4 4 3 2 3 4 6 5 5 5 4 3 3 3
2 2 2 2 2 1 1 2 3 4 4 4 4 5 5 5 5 5 5 5 5 6 5 5 5 4 5 5 5 5 4 4 4 4 2 1 5 5 5 5 5 4 4 3 3
1 2 2 2 1 1 1 2 3 4 4 4 4 4 4 5 5 5 5 5 6 5 5 5 5 5 5 5 5 5 4 4 4 3 3 1 4 5 5 4 4 3 3 3 3
1 1 1 1 2 1 1 2 3 3 3 3 4 4 4 4 4 4 5 5 5 5 5 5 4 4 4 4 4 4 4 4 4 4 3 2 4 5 4 4 4 3 3 3 3
-0 0 1 1 1 2 2 2 2 2 2 3 3 3 3 4 4 4 4 4 5 5 5 4 4 5 5 5 5 4 4 4 4 3 3 4 5 4 4 3 4 3 3 2 2
-0 0 1 1 1 1 2 2 2 2 2 2 2 3 3 3 3 3 4 4 4 4 4 4 4 4 4 4 4 4 3 3 3 3 3 5 3 4 3 2 2 2 2 1 1
-0 0 1 1 1 1 1 2 2 2 2 2 2 3 3 3 3 3 3 3 4 4 3 4 3 3 3 3 3 3 3 3 3 3 3 3 3 2 2 1 1 1 1 0 -0
-2 -1 -0 0 1 1 2 3 3 1 2 2 2 2 2 3 3 2 2 3 3 3 3 3 3 3 2 3 2 2 5 5 4 4 3 2 3 2 0 -0 0 1 -0 -0 -1